Starlink 5701

operational
NORAD ID: 55487 Int'l Des: 2023-015 Owner: SPXS Country: US Constellation: starlink
LEOCIRCULAR

Starlink 5701について

説明を読み込み中...

リアルタイム位置

3D地球を読み込み中...

次回通過

高度履歴

Altitude vs Time

uPlot chart will show altitude changes over time

軌道要素

1 55487U 23015AQ 26062.16668981 .00043359 00000-0 30082-2 0 9990
2 55487 43.0000 14.5372 0001061 251.9827 28.2518 15.04915374 5765
Epoch: Mar 3, 2026 • Age: 17 hours

現在のステータス

高度 552.1 km
速度 7.59 km/s
衛星直下点 25.14°N, 18.95°W
打ち上げ日 Feb 2, 2023
運用期間 3 years
タイプ internet

技術仕様

分類 Payload
質量 305.00 kg
乾燥質量 290.00 kg
総質量 305.00 kg
長さ 0.20 m
直径 2.80 m
スパン 9.00 m
形状 Box + pan
製造者 SPXS
バスタイプ Starlink
フェーズステータス In Orbit
所有者/国 SPXS/US

大規模コンステレーション

Loading constellations...